| time (UTC) | temp F | wind direction | speed knots | gust knots | rain 1hr in | rain 24hr in | rain mn in | humidity % | barometer mb |
| 20260506110125 | 73 | 149 | 0.0 | 0.0 | 0.00 | 0.00 | 0.00 | 95 | 1008.2 |
| 20260506105621 | 73 | 149 | 0.0 | 0.0 | 0.00 | 0.00 | 0.00 | 94 | 1008.1 |
| 20260506105118 | 73 | 149 | 0.0 | 0.0 | 0.00 | 0.00 | 0.00 | 94 | 1008.1 |
| 20260506104617 | 73 | 149 | 0.0 | 0.9 | 0.00 | 0.00 | 0.00 | 94 | 1008.0 |
| 20260506104114 | 73 | 149 | 0.0 | 0.9 | 0.00 | 0.00 | 0.00 | 94 | 1007.9 |
| 20260506103611 | 73 | 150 | 0.0 | 0.9 | 0.00 | 0.00 | 0.00 | 94 | 1007.9 |
| 20260506103108 | 73 | 149 | 0.0 | 0.0 | 0.00 | 0.00 | 0.00 | 94 | 1008.0 |
| 20260506102606 | 73 | 149 | 0.0 | 0.0 | 0.00 | 0.00 | 0.00 | 94 | 1007.8 |
| 20260506102103 | 73 | 150 | 0.0 | 0.0 | 0.00 | 0.00 | 0.00 | 93 | 1007.8 |
| 20260506101600 | 73 | 150 | 0.0 | 0.0 | 0.00 | 0.00 | 0.00 | 93 | 1007.7 |
| 20260506101057 | 73 | 149 | 0.0 | 1.7 | 0.00 | 0.00 | 0.00 | 93 | 1007.6 |
| 20260506100555 | 73 | 149 | 0.0 | 1.7 | 0.00 | 0.00 | 0.00 | 93 | 1007.8 |
| 20260506100053 | 73 | 149 | 0.0 | 0.9 | 0.00 | 0.00 | 0.00 | 93 | 1007.9 |
| 20260506095551 | 73 | 149 | 0.9 | 0.9 | 0.00 | 0.00 | 0.00 | 93 | 1007.8 |
| 20260506095047 | 74 | 149 | 0.0 | 0.9 | 0.00 | 0.00 | 0.00 | 93 | 1007.9 |
| 20260506094545 | 74 | 149 | 0.0 | 0.0 | 0.00 | 0.00 | 0.00 | 93 | 1007.9 |
| 20260506094043 | 74 | 149 | 0.0 | 1.7 | 0.00 | 0.00 | 0.00 | 93 | 1007.7 |
| 20260506093541 | 74 | 149 | 0.0 | 0.0 | 0.00 | 0.00 | 0.00 | 93 | 1007.7 |
| 20260506093038 | 74 | 149 | 0.9 | 0.9 | 0.00 | 0.00 | 0.00 | 92 | 1007.8 |
| 20260506092536 | 74 | 149 | 0.0 | 0.0 | 0.00 | 0.00 | 0.00 | 92 | 1007.8 |
| 20260506092032 | 74 | 149 | 0.9 | 0.9 | 0.00 | 0.00 | 0.00 | 92 | 1007.9 |
| 20260506091531 | 74 | 149 | 0.0 | 0.9 | 0.00 | 0.00 | 0.00 | 92 | 1007.6 |
| 20260506091028 | 74 | 149 | 0.0 | 0.0 | 0.00 | 0.00 | 0.00 | 92 | 1007.5 |
| 20260506090525 | 74 | 149 | 0.0 | 0.9 | 0.00 | 0.00 | 0.00 | 92 | 1007.6 |
| 20260506090021 | 74 | 149 | 0.0 | 0.9 | 0.00 | 0.00 | 0.00 | 92 | 1007.6 |
| 20260506085519 | 74 | 149 | 0.0 | 0.9 | 0.00 | 0.00 | 0.00 | 92 | 1007.5 |
| 20260506085015 | 74 | 150 | 0.0 | 0.9 | 0.00 | 0.00 | 0.00 | 92 | 1007.8 |
| 20260506084512 | 74 | 149 | 0.0 | 1.7 | 0.00 | 0.00 | 0.00 | 91 | 1007.7 |
| 20260506084008 | 74 | 141 | 0.9 | 0.9 | 0.00 | 0.00 | 0.00 | 91 | 1007.7 |
| 20260506083505 | 74 | 136 | 0.0 | 0.9 | 0.00 | 0.00 | 0.00 | 91 | 1007.8 |
| 20260506083003 | 74 | 134 | 0.9 | 0.9 | 0.00 | 0.00 | 0.00 | 91 | 1007.8 |
| 20260506082459 | 74 | 125 | 0.0 | 0.0 | 0.00 | 0.00 | 0.00 | 91 | 1007.6 |
| 20260506081955 | 74 | 112 | 0.9 | 1.7 | 0.00 | 0.00 | 0.00 | 91 | 1007.5 |
| 20260506081454 | 74 | 131 | 0.9 | 1.7 | 0.00 | 0.00 | 0.00 | 91 | 1007.5 |
| 20260506080951 | 74 | 132 | 0.9 | 0.9 | 0.00 | 0.00 | 0.00 | 91 | 1007.6 |
| 20260506080448 | 74 | 138 | 0.9 | 1.7 | 0.00 | 0.00 | 0.00 | 91 | 1007.8 |
| 20260506073431 | 75 | 138 | 0.9 | 3.5 | 0.00 | 0.00 | 0.00 | 90 | 1007.7 |
| 20260506072929 | 75 | 143 | 0.9 | 2.6 | 0.00 | 0.00 | 0.00 | 90 | 1007.7 |
| 20260506072425 | 75 | 121 | 0.0 | 1.7 | 0.00 | 0.00 | 0.00 | 90 | 1007.8 |
| 20260506071924 | 75 | 110 | 1.7 | 3.5 | 0.00 | 0.00 | 0.00 | 90 | 1007.8 |
| 20260506071421 | 75 | 136 | 0.0 | 1.7 | 0.00 | 0.00 | 0.00 | 90 | 1007.9 |
| 20260506070918 | 75 | 129 | 0.0 | 1.7 | 0.00 | 0.00 | 0.00 | 90 | 1007.9 |
| 20260506070415 | 75 | 124 | 0.0 | 0.0 | 0.00 | 0.00 | 0.00 | 90 | 1007.8 |
| 20260506062352 | 75 | 138 | 0.9 | 2.6 | 0.00 | 0.00 | 0.00 | 88 | 1007.5 |
| 20260506061848 | 75 | 129 | 0.9 | 2.6 | 0.00 | 0.00 | 0.00 | 87 | 1007.5 |
| 20260506061345 | 76 | 106 | 1.7 | 3.5 | 0.00 | 0.00 | 0.00 | 87 | 1007.6 |
| 20260506060843 | 76 | 117 | 1.7 | 3.5 | 0.00 | 0.00 | 0.00 | 87 | 1007.5 |
| 20260506060341 | 76 | 131 | 1.7 | 3.5 | 0.00 | 0.00 | 0.00 | 86 | 1007.6 |
| 20260506051312 | 77 | 123 | 1.7 | 3.5 | 0.00 | 0.00 | 0.00 | 85 | 1007.9 |
| 20260506050810 | 77 | 146 | 3.5 | 5.2 | 0.00 | 0.00 | 0.00 | 85 | 1007.9 |
| 20260506050308 | 77 | 122 | 0.0 | 2.6 | 0.00 | 0.00 | 0.00 | 85 | 1007.7 |
| 20260506044758 | 77 | 134 | 0.0 | 1.7 | 0.00 | 0.00 | 0.00 | 84 | 1007.6 |
| 20260506044255 | 77 | 142 | 0.9 | 5.2 | 0.00 | 0.00 | 0.00 | 84 | 1007.4 |
| 20260506043752 | 77 | 142 | 1.7 | 3.5 | 0.00 | 0.00 | 0.00 | 84 | 1007.4 |
| 20260506043250 | 77 | 132 | 0.9 | 1.7 | 0.00 | 0.00 | 0.00 | 85 | 1007.6 |
| 20260506042748 | 77 | 123 | 0.9 | 3.5 | 0.00 | 0.00 | 0.00 | 84 | 1007.5 |
| 20260506042247 | 77 | 120 | 1.7 | 1.7 | 0.00 | 0.00 | 0.00 | 84 | 1007.6 |
| 20260506041745 | 77 | 132 | 1.7 | 2.6 | 0.00 | 0.00 | 0.00 | 84 | 1007.6 |
| 20260506041242 | 77 | 132 | 0.9 | 2.6 | 0.00 | 0.00 | 0.00 | 84 | 1007.5 |
| 20260506040739 | 77 | 177 | 3.5 | 5.2 | 0.00 | 0.00 | 0.00 | 84 | 1007.3 |
| 20260506040236 | 77 | 117 | 0.9 | 2.6 | 0.00 | 0.00 | 0.00 | 84 | 1007.4 |
| 20260506035732 | 77 | 137 | 0.9 | 3.5 | 0.00 | 0.00 | 0.00 | 84 | 1007.2 |
| 20260506035230 | 77 | 133 | 0.9 | 1.7 | 0.00 | 0.00 | 0.00 | 84 | 1007.3 |
| 20260506034726 | 77 | 143 | 1.7 | 2.6 | 0.00 | 0.00 | 0.00 | 84 | 1007.1 |
| 20260506034224 | 77 | 129 | 1.7 | 2.6 | 0.00 | 0.00 | 0.00 | 84 | 1007.1 |
| 20260506033721 | 77 | 109 | 0.9 | 1.7 | 0.00 | 0.00 | 0.00 | 84 | 1007.1 |
| 20260506033218 | 77 | 128 | 0.9 | 0.9 | 0.00 | 0.00 | 0.00 | 84 | 1006.9 |
| 20260506032715 | 77 | 133 | 0.0 | 0.9 | 0.00 | 0.00 | 0.00 | 84 | 1006.8 |
| 20260506032212 | 77 | 132 | 0.0 | 3.5 | 0.00 | 0.00 | 0.00 | 83 | 1006.9 |
| 20260506031708 | 77 | 141 | 0.9 | 1.7 | 0.00 | 0.00 | 0.00 | 83 | 1006.8 |
| 20260506031206 | 77 | 150 | 1.7 | 6.1 | 0.00 | 0.00 | 0.00 | 83 | 1006.7 |
| 20260506030704 | 77 | 138 | 0.0 | 0.9 | 0.00 | 0.00 | 0.00 | 83 | 1006.8 |
| 20260506030201 | 77 | 132 | 0.9 | 1.7 | 0.00 | 0.00 | 0.00 | 83 | 1006.8 |
| 20260506025657 | 77 | 133 | 0.9 | 1.7 | 0.00 | 0.00 | 0.00 | 83 | 1006.6 |
| 20260506025154 | 77 | 132 | 0.9 | 3.5 | 0.00 | 0.00 | 0.00 | 83 | 1006.5 |
| 20260506024651 | 77 | 142 | 0.0 | 1.7 | 0.00 | 0.00 | 0.00 | 83 | 1006.5 |
| 20260506024148 | 77 | 146 | 0.9 | 0.9 | 0.00 | 0.00 | 0.00 | 84 | 1006.3 |
| 20260506023644 | 77 | 146 | 0.9 | 1.7 | 0.00 | 0.00 | 0.00 | 83 | 1006.2 |
| 20260506023141 | 78 | 146 | 0.0 | 0.9 | 0.00 | 0.00 | 0.00 | 83 | 1006.1 |
| 20260506022638 | 78 | 145 | 0.9 | 1.7 | 0.00 | 0.00 | 0.00 | 83 | 1006.1 |
| 20260506022136 | 78 | 144 | 0.0 | 0.9 | 0.00 | 0.00 | 0.00 | 83 | 1006.1 |
| 20260506021634 | 78 | 128 | 0.9 | 1.7 | 0.00 | 0.00 | 0.00 | 82 | 1006.0 |
| 20260506021130 | 78 | 141 | 0.9 | 1.7 | 0.00 | 0.00 | 0.00 | 82 | 1006.1 |
| 20260506020627 | 78 | 144 | 1.7 | 3.5 | 0.00 | 0.00 | 0.00 | 82 | 1005.9 |
| 20260506020125 | 78 | 131 | 0.9 | 1.7 | 0.00 | 0.00 | 0.00 | 83 | 1006.0 |
| 20260506015623 | 78 | 127 | 0.9 | 0.9 | 0.00 | 0.00 | 0.00 | 83 | 1006.1 |
| 20260506015119 | 78 | 124 | 0.0 | 0.9 | 0.00 | 0.00 | 0.00 | 83 | 1006.0 |
| 20260506014617 | 78 | 124 | 0.0 | 0.0 | 0.00 | 0.00 | 0.00 | 82 | 1005.9 |
| 20260506014112 | 78 | 124 | 0.0 | 0.9 | 0.00 | 0.00 | 0.00 | 81 | 1006.0 |
| 20260506013611 | 78 | 124 | 0.0 | 0.0 | 0.00 | 0.00 | 0.00 | 81 | 1005.9 |
| 20260506013107 | 78 | 124 | 0.0 | 0.9 | 0.00 | 0.00 | 0.00 | 81 | 1005.9 |
| 20260506012603 | 78 | 124 | 0.9 | 0.9 | 0.00 | 0.00 | 0.00 | 81 | 1005.7 |
| 20260506012100 | 78 | 142 | 0.0 | 2.6 | 0.00 | 0.00 | 0.00 | 81 | 1005.6 |
| 20260506011558 | 78 | 130 | 0.9 | 2.6 | 0.00 | 0.00 | 0.00 | 81 | 1005.3 |
| 20260506011054 | 78 | 127 | 1.7 | 2.6 | 0.00 | 0.00 | 0.00 | 80 | 1005.3 |
| 20260506010554 | 79 | 125 | 0.0 | 1.7 | 0.00 | 0.00 | 0.00 | 80 | 1005.3 |
| 20260506010050 | 79 | 119 | 1.7 | 3.5 | 0.00 | 0.00 | 0.00 | 79 | 1005.1 |
| 20260506005547 | 79 | 145 | 0.9 | 3.5 | 0.00 | 0.00 | 0.00 | 80 | 1005.1 |
| 20260506005043 | 79 | 138 | 1.7 | 1.7 | 0.00 | 0.00 | 0.00 | 79 | 1005.1 |
| 20260506004540 | 80 | 143 | 0.9 | 0.9 | 0.00 | 0.00 | 0.00 | 79 | 1005.0 |
| 20260506004037 | 80 | 129 | 0.9 | 1.7 | 0.00 | 0.00 | 0.00 | 78 | 1004.8 |
| 20260506003533 | 80 | 136 | 1.7 | 5.2 | 0.00 | 0.00 | 0.00 | 78 | 1004.7 |
| 20260506003029 | 80 | 141 | 0.9 | 0.9 | 0.00 | 0.00 | 0.00 | 77 | 1004.9 |
| 20260506002526 | 80 | 123 | 0.9 | 1.7 | 0.00 | 0.00 | 0.00 | 76 | 1004.9 |
| 20260506002021 | 81 | 140 | 0.9 | 1.7 | 0.00 | 0.00 | 0.00 | 76 | 1004.8 |
| 20260506001518 | 81 | 132 | 0.9 | 1.7 | 0.00 | 0.00 | 0.00 | 75 | 1004.8 |
| 20260506001015 | 81 | 145 | 2.6 | 6.1 | 0.00 | 0.00 | 0.00 | 74 | 1004.7 |
| 20260506000513 | 81 | 148 | 2.6 | 6.1 | 0.00 | 0.00 | 0.00 | 74 | 1004.7 |
| 20260506000010 | 82 | 117 | 0.9 | 2.6 | 0.00 | 0.00 | 0.00 | 75 | 1004.9 |
| 20260505235508 | 82 | 139 | 4.3 | 7.0 | 0.00 | 0.00 | 0.00 | 74 | 1004.8 |
| 20260505235004 | 82 | 134 | 0.9 | 3.5 | 0.00 | 0.00 | 0.00 | 74 | 1004.6 |
| 20260505234501 | 82 | 126 | 1.7 | 2.6 | 0.00 | 0.00 | 0.00 | 73 | 1004.6 |
| 20260505233958 | 82 | 133 | 4.3 | 7.0 | 0.00 | 0.00 | 0.00 | 73 | 1004.5 |
| 20260505233456 | 82 | 142 | 1.7 | 5.2 | 0.00 | 0.00 | 0.00 | 73 | 1004.8 |
| 20260505232953 | 82 | 158 | 2.6 | 7.0 | 0.00 | 0.00 | 0.00 | 72 | 1004.7 |
| 20260505232451 | 82 | 120 | 0.9 | 5.2 | 0.00 | 0.00 | 0.00 | 73 | 1004.6 |
| 20260505231948 | 82 | 139 | 1.7 | 5.2 | 0.00 | 0.00 | 0.00 | 73 | 1004.6 |
| 20260505231445 | 83 | 135 | 0.0 | 2.6 | 0.00 | 0.00 | 0.00 | 73 | 1004.8 |
| 20260505230943 | 83 | 110 | 1.7 | 3.5 | 0.00 | 0.00 | 0.00 | 72 | 1004.4 |
| 20260505230441 | 83 | 127 | 3.5 | 7.8 | 0.00 | 0.00 | 0.00 | 72 | 1004.7 |
| 20260505225937 | 83 | 167 | 0.9 | 2.6 | 0.00 | 0.00 | 0.00 | 73 | 1004.5 |
| 20260505225434 | 83 | 166 | 3.5 | 6.1 | 0.00 | 0.00 | 0.00 | 72 | 1004.6 |
| 20260505224929 | 84 | 127 | 2.6 | 6.1 | 0.00 | 0.00 | 0.00 | 71 | 1004.4 |
| 20260505224427 | 84 | 142 | 1.7 | 8.7 | 0.00 | 0.00 | 0.00 | 70 | 1004.4 |
| 20260505223924 | 84 | 133 | 1.7 | 7.0 | 0.00 | 0.00 | 0.00 | 71 | 1004.4 |
| 20260505223421 | 84 | 118 | 0.0 | 2.6 | 0.00 | 0.00 | 0.00 | 71 | 1004.5 |
| 20260505222917 | 84 | 134 | 1.7 | 6.1 | 0.00 | 0.00 | 0.00 | 71 | 1004.7 |
| 20260505222413 | 84 | 143 | 2.6 | 6.1 | 0.00 | 0.00 | 0.00 | 69 | 1004.7 |
| 20260505221910 | 85 | 130 | 1.7 | 6.1 | 0.00 | 0.00 | 0.00 | 69 | 1004.8 |
| 20260505221407 | 85 | 138 | 1.7 | 3.5 | 0.00 | 0.00 | 0.00 | 69 | 1004.7 |
| 20260505220904 | 84 | 133 | 1.7 | 3.5 | 0.00 | 0.00 | 0.00 | 70 | 1004.7 |
| 20260505220401 | 84 | 164 | 2.6 | 5.2 | 0.00 | 0.00 | 0.00 | 70 | 1004.8 |
| 20260505215858 | 84 | 112 | 0.9 | 3.5 | 0.00 | 0.00 | 0.00 | 70 | 1004.7 |
| 20260505215356 | 84 | 151 | 4.3 | 6.1 | 0.00 | 0.00 | 0.00 | 68 | 1004.7 |
| 20260505214855 | 85 | 114 | 1.7 | 9.6 | 0.00 | 0.00 | 0.00 | 69 | 1004.7 |
| 20260505214352 | 84 | 138 | 6.1 | 7.8 | 0.00 | 0.00 | 0.00 | 68 | 1005.0 |
| 20260505213849 | 85 | 155 | 3.5 | 7.8 | 0.00 | 0.00 | 0.00 | 69 | 1004.8 |
| 20260505213347 | 85 | 166 | 2.6 | 5.2 | 0.00 | 0.00 | 0.00 | 69 | 1004.9 |
| 20260505212842 | 85 | 131 | 2.6 | 6.1 | 0.00 | 0.00 | 0.00 | 68 | 1005.0 |
| 20260505212339 | 85 | 133 | 2.6 | 7.0 | 0.00 | 0.00 | 0.00 | 67 | 1004.8 |
| 20260505211836 | 84 | 149 | 5.2 | 7.8 | 0.00 | 0.00 | 0.00 | 67 | 1005.1 |
| 20260505211334 | 84 | 141 | 2.6 | 11.3 | 0.00 | 0.00 | 0.00 | 69 | 1005.0 |
| 20260505210830 | 84 | 96 | 0.0 | 8.7 | 0.00 | 0.00 | 0.00 | 69 | 1005.0 |
| 20260505210327 | 85 | 55 | 2.6 | 6.1 | 0.00 | 0.00 | 0.00 | 68 | 1005.0 |
| 20260505205823 | 85 | 197 | 2.6 | 5.2 | 0.00 | 0.00 | 0.00 | 68 | 1005.3 |
| 20260505205322 | 84 | 134 | 1.7 | 5.2 | 0.00 | 0.00 | 0.00 | 68 | 1005.1 |
| 20260505204818 | 84 | 97 | 1.7 | 7.8 | 0.00 | 0.00 | 0.00 | 69 | 1005.3 |
| 20260505204316 | 84 | 127 | 2.6 | 7.8 | 0.00 | 0.00 | 0.00 | 68 | 1005.5 |
| 20260505203813 | 84 | 123 | 6.1 | 8.7 | 0.00 | 0.00 | 0.00 | 68 | 1005.6 |
| 20260505203310 | 85 | 117 | 4.3 | 11.3 | 0.00 | 0.00 | 0.00 | 68 | 1005.3 |
| 20260505202806 | 84 | 164 | 2.6 | 5.2 | 0.00 | 0.00 | 0.00 | 69 | 1005.6 |
| 20260505202305 | 84 | 148 | 2.6 | 7.8 | 0.00 | 0.00 | 0.00 | 69 | 1005.8 |
| 20260505201759 | 84 | 106 | 3.5 | 8.7 | 0.00 | 0.00 | 0.00 | 69 | 1005.9 |
| 20260505201256 | 84 | 177 | 6.1 | 8.7 | 0.00 | 0.00 | 0.00 | 69 | 1005.8 |
| 20260505200755 | 85 | 147 | 0.9 | 5.2 | 0.00 | 0.00 | 0.00 | 70 | 1006.0 |
| 20260505200251 | 84 | 103 | 3.5 | 7.0 | 0.00 | 0.00 | 0.00 | 70 | 1006.0 |
| 20260505195746 | 84 | 91 | 2.6 | 8.7 | 0.00 | 0.00 | 0.00 | 70 | 1006.0 |
| 20260505195244 | 84 | 142 | 2.6 | 9.6 | 0.00 | 0.00 | 0.00 | 70 | 1006.1 |
| 20260505194741 | 84 | 175 | 4.3 | 7.0 | 0.00 | 0.00 | 0.00 | 69 | 1006.3 |
| 20260505194238 | 85 | 209 | 6.1 | 9.6 | 0.00 | 0.00 | 0.00 | 68 | 1006.3 |
| 20260505193733 | 85 | 121 | 4.3 | 7.0 | 0.00 | 0.00 | 0.00 | 68 | 1006.3 |
| 20260505193231 | 85 | 133 | 3.5 | 7.8 | 0.00 | 0.00 | 0.00 | 68 | 1006.4 |
| 20260505192730 | 85 | 123 | 1.7 | 5.2 | 0.00 | 0.00 | 0.00 | 69 | 1006.4 |
| 20260505192227 | 84 | 139 | 3.5 | 7.0 | 0.00 | 0.00 | 0.00 | 70 | 1006.5 |
| 20260505191725 | 83 | 159 | 7.0 | 9.6 | 0.00 | 0.00 | 0.00 | 69 | 1006.4 |
| 20260505191224 | 83 | 116 | 0.9 | 5.2 | 0.00 | 0.00 | 0.00 | 72 | 1006.6 |
| 20260505190719 | 84 | 124 | 1.7 | 5.2 | 0.00 | 0.00 | 0.00 | 71 | 1006.6 |
| 20260505190219 | 84 | 97 | 1.7 | 7.8 | 0.00 | 0.00 | 0.00 | 72 | 1006.8 |
| 20260505185716 | 83 | 166 | 3.5 | 7.0 | 0.00 | 0.00 | 0.00 | 72 | 1006.7 |
| 20260505185212 | 83 | 121 | 5.2 | 7.0 | 0.00 | 0.00 | 0.00 | 72 | 1006.7 |
| 20260505184708 | 83 | 141 | 1.7 | 9.6 | 0.00 | 0.00 | 0.00 | 72 | 1006.8 |
| 20260505184206 | 83 | 64 | 1.7 | 7.8 | 0.00 | 0.00 | 0.00 | 71 | 1006.8 |
| 20260505183702 | 83 | 111 | 4.3 | 7.8 | 0.00 | 0.00 | 0.00 | 71 | 1007.0 |
| 20260505183200 | 83 | 125 | 3.5 | 5.2 | 0.00 | 0.00 | 0.00 | 73 | 1007.0 |
| 20260505182655 | 82 | 148 | 2.6 | 6.1 | 0.00 | 0.00 | 0.00 | 73 | 1007.2 |
| 20260505182153 | 82 | 72 | 1.7 | 7.0 | 0.00 | 0.00 | 0.00 | 75 | 1007.2 |
| 20260505181649 | 82 | 112 | 6.1 | 8.7 | 0.00 | 0.00 | 0.00 | 72 | 1007.2 |
| 20260505181147 | 82 | 115 | 0.9 | 8.7 | 0.00 | 0.00 | 0.00 | 75 | 1007.2 |
| 20260505180643 | 81 | 124 | 1.7 | 8.7 | 0.00 | 0.00 | 0.00 | 75 | 1007.1 |
| 20260505180141 | 81 | 107 | 2.6 | 2.6 | 0.00 | 0.00 | 0.00 | 76 | 1007.1 |
| 20260505175637 | 81 | 166 | 7.8 | 9.6 | 0.00 | 0.00 | 0.00 | 75 | 1007.4 |
| 20260505175133 | 81 | 120 | 2.6 | 8.7 | 0.00 | 0.00 | 0.00 | 76 | 1007.2 |
| 20260505174630 | 80 | 126 | 0.9 | 8.7 | 0.00 | 0.00 | 0.00 | 77 | 1007.2 |
| 20260505174126 | 80 | 116 | 2.6 | 7.0 | 0.00 | 0.00 | 0.00 | 76 | 1007.2 |
| 20260505173623 | 80 | 120 | 2.6 | 7.8 | 0.00 | 0.00 | 0.00 | 78 | 1007.3 |
| 20260505173119 | 80 | 132 | 1.7 | 6.1 | 0.00 | 0.00 | 0.00 | 78 | 1007.3 |
| 20260505172617 | 79 | 120 | 1.7 | 3.5 | 0.00 | 0.00 | 0.00 | 78 | 1007.3 |
| 20260505172114 | 80 | 107 | 1.7 | 7.0 | 0.00 | 0.00 | 0.00 | 77 | 1007.5 |
| 20260505171608 | 79 | 144 | 3.5 | 6.1 | 0.00 | 0.00 | 0.00 | 78 | 1007.4 |
| 20260505171106 | 79 | 106 | 0.9 | 6.1 | 0.00 | 0.00 | 0.00 | 79 | 1007.4 |
| 20260505170602 | 79 | 124 | 1.7 | 2.6 | 0.00 | 0.00 | 0.00 | 79 | 1007.6 |
| 20260505170059 | 79 | 120 | 0.9 | 3.5 | 0.00 | 0.00 | 0.00 | 79 | 1007.7 |
| 20260505165554 | 79 | 138 | 0.9 | 3.5 | 0.00 | 0.00 | 0.00 | 80 | 1007.6 |
| 20260505165050 | 78 | 134 | 1.7 | 2.6 | 0.00 | 0.00 | 0.00 | 80 | 1007.6 |
| 20260505164546 | 78 | 109 | 1.7 | 5.2 | 0.00 | 0.00 | 0.00 | 80 | 1007.6 |
| 20260505164044 | 77 | 120 | 0.0 | 5.2 | 0.00 | 0.00 | 0.00 | 82 | 1007.7 |
| 20260505163542 | 77 | 96 | 3.5 | 6.1 | 0.00 | 0.00 | 0.00 | 82 | 1007.5 |
| 20260505163039 | 76 | 85 | 1.7 | 5.2 | 0.00 | 0.00 | 0.00 | 83 | 1007.6 |
| 20260505162538 | 76 | 117 | 3.5 | 7.0 | 0.00 | 0.00 | 0.00 | 83 | 1007.7 |
| 20260505162035 | 76 | 120 | 1.7 | 7.8 | 0.00 | 0.00 | 0.00 | 83 | 1007.8 |
| 20260505161532 | 76 | 154 | 3.5 | 6.1 | 0.00 | 0.00 | 0.00 | 83 | 1007.8 |
| 20260505161029 | 76 | 141 | 0.9 | 5.2 | 0.00 | 0.00 | 0.00 | 83 | 1007.7 |
| 20260505160527 | 76 | 147 | 2.6 | 3.5 | 0.00 | 0.00 | 0.00 | 84 | 1007.7 |
| 20260505153003 | 74 | 101 | 0.0 | 3.5 | 0.00 | 0.00 | 0.00 | 86 | 1007.6 |
| 20260505152500 | 74 | 148 | 5.2 | 7.8 | 0.00 | 0.00 | 0.00 | 85 | 1007.7 |
| 20260505151955 | 75 | 171 | 2.6 | 5.2 | 0.00 | 0.00 | 0.00 | 85 | 1007.7 |
| 20260505151451 | 75 | 131 | 5.2 | 8.7 | 0.00 | 0.00 | 0.00 | 85 | 1007.7 |
| 20260505150948 | 74 | 124 | 1.7 | 2.6 | 0.00 | 0.00 | 0.00 | 86 | 1007.6 |
| 20260505150445 | 74 | 144 | 0.9 | 3.5 | 0.00 | 0.00 | 0.00 | 87 | 1007.5 |
| 20260505140415 | 72 | 186 | 1.7 | 3.5 | 0.00 | 0.00 | 0.00 | 87 | 1007.5 |
| 20260505124829 | 71 | 138 | 3.5 | 6.1 | 0.00 | 0.00 | 0.00 | 88 | 1007.1 |
| 20260505124325 | 71 | 137 | 5.2 | 8.7 | 0.00 | 0.00 | 0.00 | 88 | 1007.1 |
| 20260505123821 | 71 | 118 | 1.7 | 5.2 | 0.00 | 0.00 | 0.00 | 88 | 1007.0 |
| 20260505123318 | 71 | 136 | 1.7 | 7.0 | 0.00 | 0.00 | 0.00 | 89 | 1007.2 |
| 20260505122814 | 71 | 124 | 0.0 | 3.5 | 0.00 | 0.00 | 0.00 | 89 | 1007.3 |
| 20260505122312 | 70 | 116 | 0.0 | 5.2 | 0.00 | 0.00 | 0.00 | 89 | 1007.1 |
| 20260505121808 | 70 | 127 | 0.9 | 3.5 | 0.00 | 0.00 | 0.00 | 90 | 1007.1 |
| 20260505121305 | 70 | 118 | 0.9 | 3.5 | 0.00 | 0.00 | 0.00 | 89 | 1007.0 |
| 20260505120801 | 70 | 111 | 0.0 | 5.2 | 0.00 | 0.00 | 0.00 | 90 | 1007.0 |
| 20260505120258 | 70 | 127 | 3.5 | 3.5 | 0.00 | 0.00 | 0.00 | 90 | 1006.7 |
| 20260505115756 | 70 | 120 | 2.6 | 6.1 | 0.00 | 0.00 | 0.00 | 90 | 1006.7 |
| 20260505115254 | 70 | 138 | 3.5 | 5.2 | 0.00 | 0.00 | 0.00 | 90 | 1006.7 |
| 20260505114751 | 70 | 131 | 0.9 | 5.2 | 0.00 | 0.00 | 0.00 | 90 | 1006.4 |
| 20260505114247 | 70 | 125 | 0.9 | 3.5 | 0.00 | 0.00 | 0.00 | 90 | 1006.4 |
| 20260505113744 | 70 | 135 | 0.9 | 3.5 | 0.00 | 0.00 | 0.00 | 90 | 1006.4 |
| 20260505113241 | 70 | 132 | 2.6 | 5.2 | 0.00 | 0.00 | 0.00 | 90 | 1006.3 |
| 20260505112737 | 70 | 124 | 0.9 | 5.2 | 0.00 | 0.00 | 0.00 | 90 | 1006.4 |
| 20260505112235 | 70 | 135 | 1.7 | 1.7 | 0.00 | 0.00 | 0.00 | 90 | 1006.6 |
| 20260505111734 | 69 | 124 | 3.5 | 5.2 | 0.00 | 0.00 | 0.00 | 90 | 1006.6 |
| 20260505111231 | 69 | 120 | 0.9 | 3.5 | 0.00 | 0.00 | 0.00 | 90 | 1006.7 |
| 20260505110726 | 69 | 132 | 1.7 | 5.2 | 0.00 | 0.00 | 0.00 | 90 | 1006.6 |
| 20260505110224 | 69 | 114 | 3.5 | 5.2 | 0.00 | 0.00 | 0.00 | 90 | 1006.7 |